Location: Marse
(42.1502°N, 110.9866°W)
Time: 08:39:51
(UTC+00:00)

Oscar 19 - Pass Details

Date: 06 July 2022
Orbit: 773 x 790 km, 98.8° (Epoch: 13 August)

Event Time Altitude Azimuth Distance (km) Brightness Sun altitude
Rises 11:06:05 0° 12° (NNE) 3,259 14.8 -8.1°
Reaches altitude 10° 11:08:24 10° 12° (NNE) 2,327 14.0 -7.7°
Maximum altitude 11:13:31 82° 286° (WNW) 786 10.6 -7.0°
Drops below altitude 10° 11:18:38 10° 199° (SSW) 2,315 12.6 -6.3°
Enters shadow 11:20:32 - 198° (SSW) 3,081 13.2 -6.0°
